This is the latest recevied weather packets stored in our database for station/object KDEQ. If no packets are shown the sender has not sent any weather packets the latest 10 day(s).
| Time | Temp. | Humidity | Pressure | Rain* | Wind** | Luminosity | Snow |
|---|---|---|---|---|---|---|---|
| 1777515810 | 17.78° C | 93% | 1013.2 hPa | - | - | - | - |
| 1777515213 | 17.78° C | 93% | 1013.2 hPa | - | - | - | - |
| 1777514610 | 17.78° C | 93% | 1013.2 hPa | - | - | - | - |
| 1777514010 | 17.78° C | 88% | 1012.5 hPa | - | - | - | - |
| 1777512808 | 17.78° C | 88% | 1012.5 hPa | - | - | - | - |
| 1777511610 | 17.78° C | 88% | 1012.5 hPa | - | - | - | - |
| 1777510411 | 17.78° C | 93% | 1011.9 hPa | - | - | - | - |
| 1777508610 | 17.78° C | 93% | 1011.9 hPa | - | - | - | - |
| 1777507412 | 17.78° C | 93% | 1011.9 hPa | - | - | - | - |
| 1777502611 | 20° C | 77% | 1012.2 hPa | - | - | - | - |
| 1777502010 | 20° C | 77% | 1012.2 hPa | - | - | - | - |
| 1777501410 | 20° C | 77% | 1012.2 hPa | - | - | - | - |
| 1777500812 | 20° C | 77% | 1012.2 hPa | - | - | - | - |
| 1777500212 | 20° C | 77% | 1012.2 hPa | - | - | - | - |
| 1777499615 | 20.56° C | 68% | 1012.5 hPa | - | - | - | - |
| 1777498409 | 20.56° C | 68% | 1012.5 hPa | - | - | - | - |
| 1777496014 | 21.67° C | 60% | 1012.5 hPa | - | - | - | - |
| 1777495413 | 21.67° C | 60% | 1012.5 hPa | - | - | - | - |
| 1777494812 | 21.67° C | 60% | 1012.5 hPa | - | - | - | - |
| 1777494209 | 21.67° C | 60% | 1012.5 hPa | - | - | - | - |
| 1777493611 | 21.67° C | 60% | 1012.5 hPa | - | - | - | - |
| 1777493014 | 21.67° C | 60% | 1012.5 hPa | - | - | - | - |
| 1777492410 | 20.56° C | 73% | 1013.9 hPa | - | - | - | - |
| 1777491213 | 20.56° C | 73% | 1013.9 hPa | - | - | - | - |
| 1777490614 | 20.56° C | 73% | 1013.9 hPa | - | - | - | - |
* Rain since midnight (hover to see other rain measurements)
** Current wind speed in m/s (hover to see current wind gust speed)